User: anonymous   Login
Location: Unspecified
(50.1700°N, 6.8600°E)
Time: 13:32:37
(UTC+00:00)
Language:

Cosmos 1943 Rocket - Orbit

View from above orbital plane
View from above orbital plane
View from above satellite
View from above satellite

Ground track
Ground track

The orbit data is extracted from the following two-line orbital elements,

1 19120U 88039B   19318.15555281 -.00000152  00000-0 -49295-4 0  9998
2 19120  71.0149 265.5625 0024377 278.0678  81.7682 14.19198619631235
Epoch (UTC): 14 November 2019 03:43:59
Eccentricity: 0.0024377
inclination: 71.0149°
perigee height: 810 km
apogee height: 845 km
right ascension of ascending node: 265.5625°
argument of perigee: 278.0678°
revolutions per day: 14.19198619
mean anomaly at epoch: 81.7682°
orbit number at epoch: 63123

The dashed part of the orbit path shows where the satellite is in the earth's shadow,  

DLR